Time,TemperatureF,DewpointF,PressureIn,WindDirection,WindDirectionDegrees,WindSpeedMPH,WindSpeedGustMPH,Humidity,HourlyPrecipIn,Conditions,Clouds,dailyrainin,SoftwareType,DateUTC
2013-05-05 00:57:00,54.1,49.4,29.26,SW,225,0.0,0.0,84,0.00,,,0.00,WUHU21623XXSP,2013-05-05 05:57:00,
2013-05-05 01:57:00,52.5,48.1,29.24,SW,225,0.0,0.0,85,0.00,,,0.00,WUHU21623XXSP,2013-05-05 06:57:00,
2013-05-05 02:57:00,51.4,47.3,29.23,WSW,248,0.0,0.0,86,0.00,,,0.00,WUHU21623XXSP,2013-05-05 07:57:00,
2013-05-05 03:57:00,50.7,46.7,29.23,WSW,248,0.0,0.0,86,0.00,,,0.00,WUHU21623XXSP,2013-05-05 08:57:00,
2013-05-05 04:57:00,50.2,46.8,29.23,NNE,23,0.4,0.4,88,0.00,,,0.00,WUHU21623XXSP,2013-05-05 09:57:00,
2013-05-05 05:57:00,50.5,47.1,29.24,NNE,23,0.2,0.2,88,0.00,,,0.00,WUHU21623XXSP,2013-05-05 10:57:00,
2013-05-05 06:57:00,50.7,47.2,29.25,NNE,23,0.0,0.0,88,0.00,,,0.00,WUHU21623XXSP,2013-05-05 11:57:00,
2013-05-05 07:15:00,50.7,47.2,29.25,NNE,22,0.0,0.0,88,0.00,,,0.00,WUHU21623XXSP,2013-05-05 12:15:00,
2013-05-05 07:20:00,50.9,47.4,29.25,NNE,22,0.0,0.0,88,0.00,,,0.00,WUHU21623XXSP,2013-05-05 12:20:00,
2013-05-05 07:25:00,51.1,47.4,29.25,NNE,22,0.0,0.0,88,0.00,,,0.00,WUHU21623XXSP,2013-05-05 12:25:00,
2013-05-05 07:30:00,51.4,47.9,29.25,NNE,22,0.0,0.0,88,0.00,,,0.00,WUHU21623XXSP,2013-05-05 12:30:00,
2013-05-05 07:35:00,51.8,48.1,29.25,NNE,22,0.0,0.0,89,0.00,,,0.00,WUHU21623XXSP,2013-05-05 12:35:00,
2013-05-05 07:40:00,52.0,48.8,29.25,NNE,22,0.0,0.0,89,0.00,,,0.00,WUHU21623XXSP,2013-05-05 12:40:00,
2013-05-05 07:45:00,52.2,49.0,29.25,NNE,22,0.0,0.0,89,0.00,,,0.00,WUHU21623XXSP,2013-05-05 12:45:00,
2013-05-05 07:50:00,52.3,49.2,29.25,NNE,22,0.0,0.0,89,0.00,,,0.00,WUHU21623XXSP,2013-05-05 12:50:00,
2013-05-05 07:55:00,52.3,49.2,29.25,NNE,22,0.0,0.0,89,0.00,,,0.00,WUHU21623XXSP,2013-05-05 12:55:00,
2013-05-05 08:00:00,52.5,49.2,29.25,NNE,22,0.0,0.0,89,0.00,,,0.00,WUHU21623XXSP,2013-05-05 13:00:00,
2013-05-05 08:05:00,52.5,49.3,29.25,NNE,22,0.0,0.0,89,0.00,,,0.00,WUHU21623XXSP,2013-05-05 13:05:00,
2013-05-05 08:10:00,52.7,49.5,29.25,NNE,22,0.0,0.0,89,0.00,,,0.00,WUHU21623XXSP,2013-05-05 13:10:00,
2013-05-05 08:15:00,52.9,49.7,29.25,NNE,22,0.0,0.0,89,0.00,,,0.00,WUHU21623XXSP,2013-05-05 13:15:00,
2013-05-05 08:20:00,53.2,50.1,29.25,NNE,22,0.0,0.0,89,0.00,,,0.00,WUHU21623XXSP,2013-05-05 13:20:00,
2013-05-05 08:25:00,53.2,50.1,29.25,NNE,22,0.0,0.0,89,0.00,,,0.00,WUHU21623XXSP,2013-05-05 13:25:00,
2013-05-05 08:30:00,53.8,50.3,29.25,NNE,22,0.0,0.0,88,0.00,,,0.00,WUHU21623XXSP,2013-05-05 13:30:00,
2013-05-05 08:35:00,54.3,50.8,29.25,NNE,22,1.8,1.8,88,0.00,,,0.00,WUHU21623XXSP,2013-05-05 13:35:00,
2013-05-05 08:40:00,54.9,51.7,29.25,NNE,22,0.0,1.8,89,0.00,,,0.00,WUHU21623XXSP,2013-05-05 13:40:00,
2013-05-05 08:45:00,55.2,52.0,29.24,NNE,22,0.0,0.0,89,0.00,,,0.00,WUHU21623XXSP,2013-05-05 13:45:00,
2013-05-05 08:50:00,55.9,52.4,29.25,NNE,22,3.6,3.6,88,0.00,,,0.00,WUHU21623XXSP,2013-05-05 13:50:00,
2013-05-05 08:55:00,56.1,52.6,29.25,NNE,22,0.7,3.6,88,0.00,,,0.00,WUHU21623XXSP,2013-05-05 13:55:00,
2013-05-05 09:00:00,56.5,53.0,29.25,North,0,1.3,6.9,88,0.00,,,0.00,WUHU21623XXSP,2013-05-05 14:00:00,
2013-05-05 09:05:00,57.4,53.9,29.25,NNE,22,6.3,6.9,88,0.03,,,0.03,WUHU21623XXSP,2013-05-05 14:05:00,
2013-05-05 09:10:00,57.9,54.4,29.25,NNE,22,4.0,6.9,88,0.03,,,0.03,WUHU21623XXSP,2013-05-05 14:10:00,
2013-05-05 09:15:00,58.6,55.1,29.25,NNE,22,1.3,4.0,88,0.03,,,0.03,WUHU21623XXSP,2013-05-05 14:15:00,
2013-05-05 09:20:00,59.4,55.5,29.25,NNE,22,5.1,5.1,87,0.03,,,0.03,WUHU21623XXSP,2013-05-05 14:20:00,
2013-05-05 09:25:00,59.9,56.0,29.25,NNE,22,1.6,5.1,87,0.03,,,0.03,WUHU21623XXSP,2013-05-05 14:25:00,
2013-05-05 09:30:00,60.4,56.3,29.25,NE,45,5.6,5.6,86,0.03,,,0.03,WUHU21623XXSP,2013-05-05 14:30:00,
2013-05-05 09:35:00,61.0,56.1,29.25,NNE,22,4.5,5.6,85,0.03,,,0.03,WUHU21623XXSP,2013-05-05 14:35:00,
2013-05-05 09:40:00,61.0,56.1,29.25,NE,45,3.4,4.5,84,0.03,,,0.03,WUHU21623XXSP,2013-05-05 14:40:00,
2013-05-05 09:45:00,61.2,56.0,29.25,NNE,22,0.0,6.5,83,0.03,,,0.03,WUHU21623XXSP,2013-05-05 14:45:00,
2013-05-05 09:50:00,61.5,56.1,29.25,NE,45,0.7,6.5,82,0.03,,,0.03,WUHU21623XXSP,2013-05-05 14:50:00,
2013-05-05 09:55:00,61.5,56.0,29.25,NNE,22,3.8,3.8,82,0.03,,,0.03,WUHU21623XXSP,2013-05-05 14:55:00,
2013-05-05 10:00:00,61.5,56.0,29.25,NNE,22,3.8,3.8,81,0.03,,,0.03,WUHU21623XXSP,2013-05-05 15:00:00,
2013-05-05 10:05:00,61.3,55.5,29.25,NNE,22,1.3,3.8,81,0.00,,,0.03,WUHU21623XXSP,2013-05-05 15:05:00,
2013-05-05 10:10:00,61.3,55.5,29.25,NNE,22,1.3,3.8,80,0.00,,,0.03,WUHU21623XXSP,2013-05-05 15:10:00,
2013-05-05 10:15:00,61.3,55.2,29.25,NNE,22,1.3,1.3,80,0.00,,,0.03,WUHU21623XXSP,2013-05-05 15:15:00,
2013-05-05 10:20:00,61.3,55.2,29.25,NE,45,3.4,8.1,81,0.00,,,0.03,WUHU21623XXSP,2013-05-05 15:20:00,
2013-05-05 10:25:00,61.5,55.3,29.25,NNE,22,0.7,8.1,80,0.00,,,0.03,WUHU21623XXSP,2013-05-05 15:25:00,
2013-05-05 10:30:00,61.5,55.3,29.26,NE,45,5.4,5.4,80,0.00,,,0.03,WUHU21623XXSP,2013-05-05 15:30:00,
2013-05-05 10:35:00,61.7,55.3,29.25,NE,45,1.6,5.4,80,0.00,,,0.03,WUHU21623XXSP,2013-05-05 15:35:00,
2013-05-05 10:40:00,61.9,55.7,29.25,NNE,22,0.7,2.5,80,0.00,,,0.03,WUHU21623XXSP,2013-05-05 15:40:00,
2013-05-05 10:45:00,62.2,55.8,29.25,NNE,22,0.0,2.5,80,0.00,,,0.03,WUHU21623XXSP,2013-05-05 15:45:00,
2013-05-05 10:50:00,62.8,56.1,29.25,NNE,22,4.5,6.3,79,0.00,,,0.03,WUHU21623XXSP,2013-05-05 15:50:00,
2013-05-05 10:55:00,63.0,56.1,29.25,NNE,22,2.0,6.3,79,0.00,,,0.03,WUHU21623XXSP,2013-05-05 15:55:00,
2013-05-05 11:00:00,63.1,56.1,29.25,NNE,22,0.9,7.4,78,0.00,,,0.03,WUHU21623XXSP,2013-05-05 16:00:00,
2013-05-05 11:05:00,63.3,56.3,29.25,NNE,22,2.9,7.4,78,0.00,,,0.03,WUHU21623XXSP,2013-05-05 16:05:00,
2013-05-05 11:10:00,63.7,56.7,29.25,NNE,22,2.9,3.4,78,0.00,,,0.03,WUHU21623XXSP,2013-05-05 16:10:00,
2013-05-05 11:15:00,64.2,56.8,29.25,NE,45,5.8,5.8,77,0.00,,,0.03,WUHU21623XXSP,2013-05-05 16:15:00,
2013-05-05 11:20:00,64.8,57.0,29.25,NNE,22,0.0,5.8,76,0.00,,,0.03,WUHU21623XXSP,2013-05-05 16:20:00,
2013-05-05 11:25:00,64.9,56.4,29.25,NNE,22,5.4,5.4,74,0.00,,,0.03,WUHU21623XXSP,2013-05-05 16:25:00,
2013-05-05 11:30:00,65.1,56.2,29.25,NNW,337,6.5,6.5,73,0.00,,,0.03,WUHU21623XXSP,2013-05-05 16:30:00,
2013-05-05 11:35:00,65.3,56.0,29.25,NNE,22,1.6,6.5,72,0.00,,,0.03,WUHU21623XXSP,2013-05-05 16:35:00,
2013-05-05 11:40:00,65.5,56.2,29.25,NNE,22,1.6,1.6,71,0.00,,,0.03,WUHU21623XXSP,2013-05-05 16:40:00,
2013-05-05 11:45:00,65.8,55.8,29.25,NE,45,3.4,3.4,71,0.00,,,0.03,WUHU21623XXSP,2013-05-05 16:45:00,
2013-05-05 11:50:00,66.0,56.0,29.24,NE,45,1.8,3.4,70,0.00,,,0.03,WUHU21623XXSP,2013-05-05 16:50:00,
2013-05-05 11:55:00,66.0,55.5,29.24,NNE,22,0.0,3.4,69,0.00,,,0.03,WUHU21623XXSP,2013-05-05 16:55:00,
2013-05-05 12:00:00,66.4,55.9,29.24,NNE,22,2.2,2.2,67,0.00,,,0.03,WUHU21623XXSP,2013-05-05 17:00:00,
2013-05-05 12:05:00,66.4,54.6,29.24,NNE,22,5.4,5.4,66,0.00,,,0.03,WUHU21623XXSP,2013-05-05 17:05:00,
2013-05-05 12:10:00,66.6,54.8,29.24,NNE,22,0.9,5.4,66,0.00,,,0.03,WUHU21623XXSP,2013-05-05 17:10:00,
2013-05-05 12:15:00,66.9,55.1,29.24,NE,45,2.2,3.4,66,0.00,,,0.03,WUHU21623XXSP,2013-05-05 17:15:00,
2013-05-05 12:20:00,67.6,55.4,29.24,NNE,22,5.4,5.4,65,0.00,,,0.03,WUHU21623XXSP,2013-05-05 17:20:00,
2013-05-05 12:25:00,67.8,55.1,29.23,NNE,22,2.2,5.4,64,0.00,,,0.03,WUHU21623XXSP,2013-05-05 17:25:00,
2013-05-05 12:30:00,68.2,55.1,29.23,NNE,22,2.2,5.4,64,0.00,,,0.03,WUHU21623XXSP,2013-05-05 17:30:00,
2013-05-05 12:35:00,68.5,55.5,29.23,NNE,22,7.6,7.6,65,0.00,,,0.03,WUHU21623XXSP,2013-05-05 17:35:00,
2013-05-05 12:40:00,68.9,56.4,29.22,ESE,112,0.4,7.6,65,0.00,,,0.03,WUHU21623XXSP,2013-05-05 17:40:00,
2013-05-05 12:45:00,69.1,55.5,29.22,NE,45,6.5,6.5,62,0.00,,,0.03,WUHU21623XXSP,2013-05-05 17:45:00,
2013-05-05 12:50:00,68.7,55.6,29.22,NNE,22,0.0,6.5,63,0.00,,,0.03,WUHU21623XXSP,2013-05-05 17:50:00,
2013-05-05 12:55:00,68.7,55.6,29.21,NNE,22,0.0,6.5,63,0.00,,,0.03,WUHU21623XXSP,2013-05-05 17:55:00,
2013-05-05 13:00:00,68.9,55.8,29.21,NE,45,6.0,6.3,63,0.00,,,0.03,WUHU21623XXSP,2013-05-05 18:00:00,
2013-05-05 13:05:00,69.3,55.9,29.21,NE,45,6.0,6.3,63,0.00,,,0.03,WUHU21623XXSP,2013-05-05 18:05:00,
2013-05-05 13:10:00,69.6,56.7,29.21,NE,45,6.0,6.0,63,0.00,,,0.03,WUHU21623XXSP,2013-05-05 18:10:00,
2013-05-05 13:15:00,70.0,56.4,29.21,NE,45,5.8,6.0,62,0.00,,,0.03,WUHU21623XXSP,2013-05-05 18:15:00,
2013-05-05 13:20:00,70.3,56.3,29.20,NNE,22,3.6,5.8,61,0.00,,,0.03,WUHU21623XXSP,2013-05-05 18:20:00,
2013-05-05 13:25:00,70.7,56.6,29.20,NNE,22,3.1,4.0,61,0.00,,,0.03,WUHU21623XXSP,2013-05-05 18:25:00,
2013-05-05 13:30:00,71.1,56.0,29.20,NNE,22,2.2,7.4,59,0.00,,,0.03,WUHU21623XXSP,2013-05-05 18:30:00,
2013-05-05 13:35:00,71.4,56.4,29.20,NE,45,0.9,8.1,59,0.00,,,0.03,WUHU21623XXSP,2013-05-05 18:35:00,
2013-05-05 13:40:00,71.4,55.9,29.20,NE,45,8.9,8.9,58,0.00,,,0.03,WUHU21623XXSP,2013-05-05 18:40:00,
2013-05-05 13:45:00,71.6,55.5,29.20,NNE,22,5.8,8.9,58,0.00,,,0.03,WUHU21623XXSP,2013-05-05 18:45:00,
2013-05-05 13:50:00,72.1,56.0,29.19,NNE,22,6.5,8.3,57,0.00,,,0.03,WUHU21623XXSP,2013-05-05 18:50:00,
2013-05-05 13:55:00,72.1,56.5,29.19,NNE,22,4.5,8.3,58,0.00,,,0.03,WUHU21623XXSP,2013-05-05 18:55:00,
2013-05-05 14:00:00,72.3,55.7,29.19,NNE,22,3.8,6.5,56,0.00,,,0.03,WUHU21623XXSP,2013-05-05 19:00:00,
2013-05-05 14:05:00,72.5,56.3,29.19,NNE,22,3.6,10.7,57,0.00,,,0.03,WUHU21623XXSP,2013-05-05 19:05:00,
2013-05-05 14:10:00,72.5,55.8,29.19,NE,45,3.6,10.7,57,0.00,,,0.03,WUHU21623XXSP,2013-05-05 19:10:00,
2013-05-05 14:15:00,72.7,56.0,29.19,NNE,22,3.4,6.9,56,0.00,,,0.03,WUHU21623XXSP,2013-05-05 19:15:00,
2013-05-05 14:20:00,73.0,55.8,29.19,NE,45,6.7,6.9,55,0.00,,,0.03,WUHU21623XXSP,2013-05-05 19:20:00,
2013-05-05 14:25:00,73.2,55.5,29.19,NNE,22,10.1,10.1,54,0.00,,,0.03,WUHU21623XXSP,2013-05-05 19:25:00,
2013-05-05 14:30:00,73.0,55.3,29.19,NE,45,1.8,10.1,54,0.00,,,0.03,WUHU21623XXSP,2013-05-05 19:30:00,
2013-05-05 14:35:00,73.4,56.1,29.19,ENE,67,0.0,10.1,55,0.00,,,0.03,WUHU21623XXSP,2013-05-05 19:35:00,
2013-05-05 14:40:00,73.0,55.3,29.19,NNE,22,1.1,7.8,54,0.00,,,0.03,WUHU21623XXSP,2013-05-05 19:40:00,
2013-05-05 14:45:00,72.9,55.3,29.19,NE,45,0.0,7.8,54,0.00,,,0.03,WUHU21623XXSP,2013-05-05 19:45:00,
2013-05-05 14:50:00,73.0,55.8,29.19,NNE,22,6.0,6.0,55,0.00,,,0.03,WUHU21623XXSP,2013-05-05 19:50:00,
2013-05-05 14:55:00,73.6,55.8,29.18,NNE,22,0.0,6.3,54,0.00,,,0.03,WUHU21623XXSP,2013-05-05 19:55:00,
2013-05-05 15:00:00,74.1,55.8,29.18,NE,45,3.8,6.3,53,0.00,,,0.03,WUHU21623XXSP,2013-05-05 20:00:00,
2013-05-05 15:05:00,74.1,55.3,29.18,North,0,3.4,5.8,52,0.00,,,0.03,WUHU21623XXSP,2013-05-05 20:05:00,
2013-05-05 15:10:00,73.9,55.1,29.18,NNE,22,4.7,5.8,52,0.00,,,0.03,WUHU21623XXSP,2013-05-05 20:10:00,
2013-05-05 15:15:00,73.8,55.5,29.18,NNE,22,6.7,6.7,53,0.00,,,0.03,WUHU21623XXSP,2013-05-05 20:15:00,
2013-05-05 15:20:00,74.3,55.5,29.18,NNE,22,4.9,6.7,52,0.00,,,0.03,WUHU21623XXSP,2013-05-05 20:20:00,
2013-05-05 15:25:00,74.8,56.0,29.19,NE,45,5.4,5.8,52,0.00,,,0.03,WUHU21623XXSP,2013-05-05 20:25:00,
2013-05-05 15:30:00,75.0,55.2,29.18,NNE,22,5.1,5.8,50,0.00,,,0.03,WUHU21623XXSP,2013-05-05 20:30:00,
2013-05-05 15:35:00,74.3,54.7,29.19,NNE,22,5.1,5.8,50,0.00,,,0.03,WUHU21623XXSP,2013-05-05 20:35:00,
2013-05-05 15:40:00,74.3,54.5,29.18,NNE,22,4.0,5.1,50,0.00,,,0.03,WUHU21623XXSP,2013-05-05 20:40:00,
2013-05-05 15:45:00,74.5,54.7,29.18,NNE,22,5.4,5.4,49,0.00,,,0.03,WUHU21623XXSP,2013-05-05 20:45:00,
2013-05-05 15:50:00,74.3,53.3,29.18,NE,45,0.0,5.4,48,0.00,,,0.03,WUHU21623XXSP,2013-05-05 20:50:00,
2013-05-05 15:55:00,74.7,53.6,29.18,NNE,22,3.4,3.4,48,0.00,,,0.03,WUHU21623XXSP,2013-05-05 20:55:00,
2013-05-05 16:00:00,75.0,54.0,29.18,ESE,112,4.9,4.9,48,0.00,,,0.03,WUHU21623XXSP,2013-05-05 21:00:00,
2013-05-05 16:05:00,75.6,53.9,29.18,NNE,22,0.0,4.9,47,0.00,,,0.03,WUHU21623XXSP,2013-05-05 21:05:00,
2013-05-05 16:09:00,75.6,54.7,29.18,SE,135,0.0,3.6,47,0.00,,,0.03,WUHU21623XXSP,2013-05-05 21:09:00,
2013-05-05 16:14:00,75.4,53.1,29.18,North,0,5.4,5.6,46,0.00,,,0.03,WUHU21623XXSP,2013-05-05 21:14:00,
2013-05-05 16:19:00,75.0,52.8,29.18,NNE,22,0.0,5.6,46,0.00,,,0.03,WUHU21623XXSP,2013-05-05 21:19:00,
2013-05-05 16:24:00,75.0,53.4,29.18,NNE,22,5.4,5.4,47,0.00,,,0.03,WUHU21623XXSP,2013-05-05 21:24:00,
2013-05-05 16:29:00,74.8,53.2,29.18,NE,45,4.7,5.4,47,0.00,,,0.03,WUHU21623XXSP,2013-05-05 21:29:00,
2013-05-05 16:34:00,74.8,53.2,29.17,NE,45,0.0,5.4,47,0.00,,,0.03,WUHU21623XXSP,2013-05-05 21:34:00,
2013-05-05 16:39:00,75.4,53.7,29.17,ENE,67,0.0,5.4,47,0.00,,,0.03,WUHU21623XXSP,2013-05-05 21:39:00,
2013-05-05 16:44:00,75.7,53.4,29.17,NE,45,1.1,4.3,46,0.00,,,0.03,WUHU21623XXSP,2013-05-05 21:44:00,
2013-05-05 16:49:00,75.7,52.2,29.17,NNE,22,4.7,4.7,44,0.00,,,0.03,WUHU21623XXSP,2013-05-05 21:49:00,
2013-05-05 16:54:00,75.4,52.5,29.17,NNE,22,4.3,4.7,45,0.00,,,0.03,WUHU21623XXSP,2013-05-05 21:54:00,
2013-05-05 16:59:00,74.8,52.6,29.17,NNE,22,0.0,4.3,46,0.00,,,0.03,WUHU21623XXSP,2013-05-05 21:59:00,
2013-05-05 17:04:00,73.6,52.6,29.18,NE,45,0.0,0.2,48,0.00,,,0.03,WUHU21623XXSP,2013-05-05 22:04:00,
2013-05-05 17:09:00,73.0,52.8,29.17,NE,45,0.4,0.4,49,0.00,,,0.03,WUHU21623XXSP,2013-05-05 22:09:00,
2013-05-05 17:14:00,72.3,52.4,29.18,NE,45,0.4,0.4,50,0.00,,,0.03,WUHU21623XXSP,2013-05-05 22:14:00,
2013-05-05 17:19:00,71.6,52.5,29.18,NE,45,0.0,0.4,51,0.00,,,0.03,WUHU21623XXSP,2013-05-05 22:19:00,
2013-05-05 17:24:00,71.2,52.2,29.17,East,90,0.0,0.4,51,0.00,,,0.03,WUHU21623XXSP,2013-05-05 22:24:00,
2013-05-05 17:29:00,71.2,52.2,29.17,East,90,0.0,0.0,51,0.00,,,0.03,WUHU21623XXSP,2013-05-05 22:29:00,
2013-05-05 17:34:00,70.9,52.3,29.17,East,90,0.0,0.0,52,0.00,,,0.03,WUHU21623XXSP,2013-05-05 22:34:00,
2013-05-05 17:39:00,70.7,52.2,29.17,ENE,67,0.0,0.0,52,0.00,,,0.03,WUHU21623XXSP,2013-05-05 22:39:00,
2013-05-05 17:44:00,70.5,52.0,29.17,ENE,67,0.0,0.0,52,0.00,,,0.03,WUHU21623XXSP,2013-05-05 22:44:00,
2013-05-05 17:49:00,70.3,51.9,29.17,ENE,67,0.0,0.0,52,0.00,,,0.03,WUHU21623XXSP,2013-05-05 22:49:00,
2013-05-05 17:54:00,70.5,52.0,29.17,ENE,67,0.0,0.0,52,0.00,,,0.03,WUHU21623XXSP,2013-05-05 22:54:00,
2013-05-05 17:59:00,71.2,52.7,29.17,ENE,67,0.0,0.0,52,0.00,,,0.03,WUHU21623XXSP,2013-05-05 22:59:00,
2013-05-05 18:04:00,72.0,52.3,29.17,NE,45,2.2,2.2,50,0.00,,,0.03,WUHU21623XXSP,2013-05-05 23:04:00,
2013-05-05 18:09:00,72.3,52.6,29.17,NE,45,0.0,2.2,50,0.00,,,0.03,WUHU21623XXSP,2013-05-05 23:09:00,
2013-05-05 18:14:00,73.2,52.3,29.17,NNE,22,3.4,3.4,48,0.00,,,0.03,WUHU21623XXSP,2013-05-05 23:14:00,
2013-05-05 18:19:00,73.6,51.4,29.18,NNE,22,0.0,3.4,46,0.00,,,0.03,WUHU21623XXSP,2013-05-05 23:19:00,
2013-05-05 18:24:00,73.2,51.7,29.18,NE,45,0.0,3.4,47,0.00,,,0.03,WUHU21623XXSP,2013-05-05 23:24:00,
2013-05-05 18:29:00,73.2,51.1,29.18,NNE,22,0.9,2.7,46,0.00,,,0.03,WUHU21623XXSP,2013-05-05 23:29:00,
2013-05-05 18:34:00,73.2,51.1,29.18,NNE,22,2.7,2.7,46,0.00,,,0.03,WUHU21623XXSP,2013-05-05 23:34:00,
2013-05-05 18:39:00,73.2,51.1,29.17,NE,45,1.3,2.7,46,0.00,,,0.03,WUHU21623XXSP,2013-05-05 23:39:00,
2013-05-05 18:44:00,73.2,51.1,29.18,NE,45,0.7,2.9,46,0.00,,,0.03,WUHU21623XXSP,2013-05-05 23:44:00,
2013-05-05 18:49:00,73.2,51.1,29.18,NNE,22,0.0,2.9,46,0.00,,,0.03,WUHU21623XXSP,2013-05-05 23:49:00,
2013-05-05 18:54:00,72.7,50.6,29.18,NE,45,0.0,3.4,46,0.00,,,0.03,WUHU21623XXSP,2013-05-05 23:54:00,
2013-05-05 18:59:00,72.3,50.3,29.18,NNE,22,0.0,3.4,46,0.00,,,0.03,WUHU21623XXSP,2013-05-05 23:59:00,
2013-05-05 19:04:00,71.4,49.4,29.18,NNE,22,0.0,3.1,46,0.00,,,0.03,WUHU21623XXSP,2013-05-06 00:04:00,
2013-05-05 19:09:00,71.2,49.9,29.18,NNE,22,0.0,3.1,47,0.00,,,0.03,WUHU21623XXSP,2013-05-06 00:09:00,
2013-05-05 19:14:00,70.9,49.5,29.18,NNE,22,0.0,0.0,47,0.00,,,0.03,WUHU21623XXSP,2013-05-06 00:14:00,
2013-05-05 19:19:00,70.3,49.7,29.18,NE,45,0.0,0.0,48,0.00,,,0.03,WUHU21623XXSP,2013-05-06 00:19:00,
2013-05-05 19:24:00,70.3,49.7,29.18,NE,45,0.0,0.0,49,0.00,,,0.03,WUHU21623XXSP,2013-05-06 00:24:00,
2013-05-05 19:29:00,70.2,50.1,29.18,NE,45,0.0,0.0,49,0.00,,,0.03,WUHU21623XXSP,2013-05-06 00:29:00,
2013-05-05 19:34:00,69.6,49.9,29.18,NE,45,0.0,0.0,49,0.00,,,0.03,WUHU21623XXSP,2013-05-06 00:34:00,
2013-05-05 19:39:00,69.6,50.2,29.19,NE,45,0.0,0.0,50,0.00,,,0.03,WUHU21623XXSP,2013-05-06 00:39:00,
2013-05-05 19:44:00,69.4,50.2,29.19,NE,45,0.0,0.0,50,0.00,,,0.03,WUHU21623XXSP,2013-05-06 00:44:00,
2013-05-05 19:49:00,69.1,49.7,29.19,ENE,67,0.0,0.0,50,0.00,,,0.03,WUHU21623XXSP,2013-05-06 00:49:00,
2013-05-05 19:54:00,68.9,50.0,29.19,ENE,67,0.0,0.0,51,0.00,,,0.03,WUHU21623XXSP,2013-05-06 00:54:00,
2013-05-05 19:59:00,68.7,49.9,29.19,ENE,67,0.0,0.0,51,0.00,,,0.03,WUHU21623XXSP,2013-05-06 00:59:00,
2013-05-05 20:04:00,68.4,50.0,29.20,ENE,67,0.0,0.0,52,0.00,,,0.03,WUHU21623XXSP,2013-05-06 01:04:00,
2013-05-05 20:09:00,68.2,49.9,29.20,ENE,67,0.0,0.0,52,0.00,,,0.03,WUHU21623XXSP,2013-05-06 01:09:00,
2013-05-05 20:14:00,67.8,49.5,29.20,East,90,0.0,0.0,52,0.00,,,0.03,WUHU21623XXSP,2013-05-06 01:14:00,
2013-05-05 20:19:00,67.6,48.9,29.20,ENE,67,0.0,0.0,51,0.00,,,0.03,WUHU21623XXSP,2013-05-06 01:19:00,
2013-05-05 20:24:00,67.6,48.9,29.20,ENE,67,0.0,0.0,51,0.00,,,0.03,WUHU21623XXSP,2013-05-06 01:24:00,
2013-05-05 20:29:00,67.3,48.6,29.20,NE,45,0.0,0.0,51,0.00,,,0.03,WUHU21623XXSP,2013-05-06 01:29:00,
2013-05-05 20:34:00,67.1,48.4,29.20,East,90,0.0,0.0,51,0.00,,,0.03,WUHU21623XXSP,2013-05-06 01:34:00,
2013-05-05 20:39:00,66.9,48.3,29.21,ESE,112,0.0,0.0,51,0.00,,,0.03,WUHU21623XXSP,2013-05-06 01:39:00,
2013-05-05 20:44:00,66.7,48.1,29.21,ESE,112,0.0,0.0,51,0.00,,,0.03,WUHU21623XXSP,2013-05-06 01:44:00,
2013-05-05 20:49:00,66.6,48.4,29.21,SE,135,0.0,4.7,52,0.00,,,0.03,WUHU21623XXSP,2013-05-06 01:49:00,
2013-05-05 20:54:00,66.2,48.3,29.21,SE,135,0.0,4.7,52,0.00,,,0.03,WUHU21623XXSP,2013-05-06 01:54:00,
2013-05-05 20:59:00,66.0,47.9,29.21,SE,135,0.0,0.0,52,0.00,,,0.03,WUHU21623XXSP,2013-05-06 01:59:00,
2013-05-05 21:04:00,65.8,48.2,29.21,SE,135,0.0,0.0,53,0.00,,,0.03,WUHU21623XXSP,2013-05-06 02:04:00,
2013-05-05 21:09:00,65.5,47.9,29.22,ESE,112,0.0,0.0,53,0.00,,,0.03,WUHU21623XXSP,2013-05-06 02:09:00,
2013-05-05 21:14:00,65.3,48.2,29.22,SE,135,0.0,0.0,54,0.00,,,0.03,WUHU21623XXSP,2013-05-06 02:14:00,
2013-05-05 21:19:00,64.9,48.3,29.23,SE,135,0.0,0.0,55,0.00,,,0.03,WUHU21623XXSP,2013-05-06 02:19:00,
2013-05-05 21:24:00,64.8,48.1,29.23,SE,135,0.0,0.0,55,0.00,,,0.03,WUHU21623XXSP,2013-05-06 02:24:00,
2013-05-05 21:29:00,64.6,48.4,29.23,SE,135,0.0,0.0,56,0.00,,,0.03,WUHU21623XXSP,2013-05-06 02:29:00,
2013-05-05 21:34:00,64.0,48.1,29.23,SE,135,0.0,0.0,57,0.00,,,0.03,WUHU21623XXSP,2013-05-06 02:34:00,
2013-05-05 21:39:00,63.7,48.1,29.23,SE,135,0.0,0.0,57,0.00,,,0.03,WUHU21623XXSP,2013-05-06 02:39:00,
2013-05-05 21:44:00,63.5,48.4,29.23,SE,135,0.0,0.0,58,0.00,,,0.03,WUHU21623XXSP,2013-05-06 02:44:00,
2013-05-05 21:49:00,63.1,48.6,29.23,SE,135,0.0,0.0,59,0.00,,,0.03,WUHU21623XXSP,2013-05-06 02:49:00,
2013-05-05 21:54:00,63.0,48.4,29.23,SE,135,0.0,0.0,59,0.00,,,0.03,WUHU21623XXSP,2013-05-06 02:54:00,
2013-05-05 21:59:00,62.8,48.7,29.23,SE,135,0.0,0.0,60,0.00,,,0.03,WUHU21623XXSP,2013-05-06 02:59:00,
2013-05-05 22:04:00,62.4,48.4,29.23,SE,135,0.0,0.0,60,0.00,,,0.03,WUHU21623XXSP,2013-05-06 03:04:00,
2013-05-05 22:09:00,62.4,48.8,29.23,SE,135,0.0,0.0,61,0.00,,,0.03,WUHU21623XXSP,2013-05-06 03:09:00,
2013-05-05 22:14:00,62.2,48.7,29.24,SE,135,0.0,0.0,61,0.00,,,0.03,WUHU21623XXSP,2013-05-06 03:14:00,
2013-05-05 22:19:00,62.1,48.9,29.24,SE,135,0.0,0.0,62,0.00,,,0.03,WUHU21623XXSP,2013-05-06 03:19:00,
2013-05-05 22:24:00,61.9,48.7,29.24,SE,135,0.0,0.0,62,0.00,,,0.03,WUHU21623XXSP,2013-05-06 03:24:00,
2013-05-05 22:29:00,61.7,48.6,29.24,SE,135,0.0,0.0,62,0.00,,,0.03,WUHU21623XXSP,2013-05-06 03:29:00,
2013-05-05 22:34:00,61.5,48.8,29.24,SE,135,0.0,0.0,63,0.00,,,0.03,WUHU21623XXSP,2013-05-06 03:34:00,
2013-05-05 22:39:00,61.5,48.8,29.24,SE,135,0.0,0.0,63,0.00,,,0.03,WUHU21623XXSP,2013-05-06 03:39:00,
2013-05-05 22:44:00,61.3,48.7,29.24,SE,135,0.0,0.0,63,0.00,,,0.03,WUHU21623XXSP,2013-05-06 03:44:00,
2013-05-05 22:49:00,61.3,48.7,29.24,SE,135,0.0,0.0,63,0.00,,,0.03,WUHU21623XXSP,2013-05-06 03:49:00,
2013-05-05 22:54:00,61.3,49.1,29.24,SE,135,0.0,0.0,64,0.00,,,0.03,WUHU21623XXSP,2013-05-06 03:54:00,
2013-05-05 22:59:00,61.2,48.9,29.23,SE,135,0.0,0.0,64,0.00,,,0.03,WUHU21623XXSP,2013-05-06 03:59:00,
2013-05-05 23:01:00,61.2,48.9,29.23,SE,135,0.0,0.0,64,0.00,,,0.03,WUHU21623XXSP,2013-05-06 04:01:00,
2013-05-05 23:06:00,61.2,48.9,29.24,SE,135,0.0,0.0,64,0.00,,,0.03,WUHU21623XXSP,2013-05-06 04:06:00,
2013-05-05 23:57:00,60.4,49.1,29.23,SE,135,0.0,0.0,66,0.00,,,0.03,WUHU21623XXSP,2013-05-06 04:57:00,